This is the latest recevied weather packets stored in our database for station/object KI5RAB. If no packets are shown the sender has not sent any weather packets the latest 10 day(s).
| Time | Temp. | Humidity | Pressure | Rain* | Wind** | Luminosity | Snow |
|---|---|---|---|---|---|---|---|
| 1788187362 | 29.44° C | 77% | 1020.2 hPa | 0 mm | - | 353 W/m² | - |
| 1788187062 | 28.89° C | 78% | 1020.1 hPa | 0 mm | - | 337 W/m² | - |
| 1788186757 | 28.89° C | 78% | 1020.1 hPa | 0 mm | - | 302 W/m² | - |
| 1788186453 | 28.89° C | 79% | 1020.2 hPa | 0 mm | - | 117 W/m² | - |
| 1788186148 | 29.44° C | 78% | 1020 hPa | 0 mm | - | 265 W/m² | - |
| 1788185847 | 29.44° C | 79% | 1019.9 hPa | 0 mm | - | 244 W/m² | - |
| 1788185542 | 28.89° C | 79% | 1020.1 hPa | 0 mm | - | 233 W/m² | - |
| 1788185242 | 28.33° C | 82% | 1020 hPa | 0 mm | - | 218 W/m² | - |
| 1788184937 | 28.33° C | 82% | 1019.9 hPa | 0 mm | - | 180 W/m² | - |
| 1788184635 | 28.33° C | 81% | 1020 hPa | 0 mm | - | 188 W/m² | - |
| 1788184330 | 28.33° C | 83% | 1020 hPa | 0 mm | - | 174 W/m² | - |
| 1788184026 | 28.33° C | 83% | 1019.9 hPa | 0 mm | - | 160 W/m² | - |
| 1788183722 | 27.78° C | 84% | 1019.9 hPa | 0 mm | - | 147 W/m² | - |
| 1788183421 | 27.78° C | 84% | 1019.8 hPa | 0 mm | - | 117 W/m² | - |
| 1788183115 | 27.78° C | 85% | 1019.8 hPa | 0 mm | - | 118 W/m² | - |
| 1788182811 | 27.22° C | 86% | 1019.8 hPa | 0 mm | - | 115 W/m² | - |
| 1788182510 | 27.22° C | 87% | 1019.8 hPa | 0 mm | - | 82 W/m² | - |
| 1788182205 | 26.67° C | 88% | 1019.6 hPa | 0 mm | - | 66 W/m² | - |
| 1788181902 | 26.11° C | 90% | 1019.6 hPa | 0 mm | - | 66 W/m² | - |
| 1788181597 | 26.11° C | 91% | 1019.6 hPa | 0 mm | - | 42 W/m² | - |
| 1788181292 | 26.11° C | 91% | 1019.6 hPa | 0 mm | - | 57 W/m² | - |
| 1788180990 | 25.56° C | 92% | 1019.5 hPa | 0 mm | - | 34 W/m² | - |
| 1788180687 | 25.56° C | 92% | 1019.5 hPa | 0 mm | - | 31 W/m² | - |
| 1788180382 | 25.56° C | 92% | 1019.5 hPa | 0 mm | - | 28 W/m² | - |
| 1788180079 | 25.56° C | 92% | 1019.6 hPa | 0 mm | - | 17 W/m² | - |
* Rain latest hour (hover to see other rain measurements)
** Current wind speed in m/s (hover to see current wind gust speed)